Total_Precipitation_Accumulation
1.83 1.79 1.69 1.55 1.52 1.51 1.51 1.60 1.74 1.57 1.21 0.95 0.91 0.93 0.98 1.02 1.16 1.12 1.03 1.20 1.20 1.13 1.14 1.15 1.16 1.14 1.12 1.18 1.32 1.51 1.60 1.63 1.65 1.72 1.80 1.77 1.69 1.72
1.61 1.65 1.63 1.52 1.45 1.44 1.47 1.52 1.60 1.66 1.43 0.98 0.85 0.87 0.95 1.00 1.12 1.00 0.95 1.13 1.13 1.11 1.07 1.03 1.02 0.99 0.98 0.99 1.05 1.19 1.30 1.37 1.45 1.55 1.72 1.88 1.92 1.93
1.47 1.47 1.46 1.45 1.48 1.45 1.45 1.49 1.53 1.59 1.55 1.14 0.93 0.93 1.03 1.06 1.08 1.00 0.93 0.93 0.94 1.09 1.05 1.00 0.96 0.92 0.91 0.92 0.93 0.97 1.04 1.11 1.22 1.38 1.54 1.71 1.81 1.82
1.38 1.37 1.35 1.35 1.37 1.39 1.43 1.46 1.48 1.48 1.49 1.31 1.05 0.96 0.96 0.97 0.98 0.98 0.93 0.88 0.82 1.00 1.01 0.99 0.95 0.90 0.86 0.86 0.88 0.90 0.91 0.95 1.02 1.11 1.23 1.40 1.57 1.67
1.26 1.27 1.26 1.30 1.34 1.33 1.34 1.33 1.31 1.31 1.34 1.30 1.11 0.94 0.89 0.87 0.93 0.94 0.90 0.86 0.79 0.85 0.91 0.97 0.97 0.94 0.92 0.90 0.92 0.91 0.87 0.82 0.83 0.91 1.01 1.15 1.29 1.43
1.14 1.19 1.21 1.23 1.23 1.24 1.28 1.27 1.24 1.24 1.23 1.25 1.16 1.04 0.97 0.93 0.98 1.01 1.00 0.92 0.88 0.80 0.86 0.89 0.98 0.99 0.91 0.85 0.81 0.84 0.85 0.86 0.89 0.94 1.01 1.07 1.15 1.26
1.05 1.08 1.15 1.27 1.30 1.25 1.21 1.20 1.22 1.27 1.29 1.33 1.26 1.10 0.96 0.92 0.93 0.89 0.93 0.95 0.95 0.91 0.89 0.83 0.78 0.76 0.77 0.79 0.79 0.81 0.86 0.92 0.97 1.00 1.04 1.10 1.15 1.21
1.00 0.98 1.00 1.08 1.11 1.15 1.14 1.11 1.17 1.27 1.38 1.40 1.26 1.05 0.86 0.78 0.77 0.84 0.94 1.02 0.98 0.79 0.77 0.81 0.76 0.77 0.72 0.69 0.81 0.82 0.83 0.87 0.90 0.92 0.95 1.01 1.07 1.13
1.00 0.93 0.89 0.87 0.92 0.86 0.93 0.99 1.01 1.11 1.16 1.07 0.99 0.85 0.77 0.75 0.86 0.97 0.96 0.95 0.83 0.70 0.77 0.87 0.83 0.81 0.74 0.74 0.85 0.79 0.80 0.85 0.88 0.91 0.93 0.94 0.98 1.03
0.86 0.79 0.75 0.70 0.70 0.75 0.78 0.85 0.82 0.80 0.82 0.78 0.75 0.72 0.70 0.74 0.87 1.02 1.05 1.05 0.92 0.78 0.77 0.86 0.77 0.75 0.75 0.75 0.83 0.80 0.79 0.84 0.91 0.95 0.97 0.96 0.96 0.99
0.73 0.69 0.67 0.63 0.72 0.80 0.77 0.79 0.69 0.63 0.70 0.78 0.83 0.83 0.88 0.88 0.88 1.02 1.16 1.26 1.15 0.85 0.69 0.73 0.69 0.65 0.70 0.72 0.74 0.79 0.77 0.79 0.83 0.86 0.89 0.90 0.92 0.95
0.64 0.63 0.70 0.67 0.75 0.82 0.73 0.70 0.65 0.58 0.58 0.64 0.70 0.75 0.75 0.79 0.89 0.87 1.03 1.31 1.22 0.96 0.62 0.68 0.73 0.79 0.99 0.73 0.64 0.65 0.68 0.73 0.79 0.84 0.88 0.92 0.96 0.95
0.63 0.61 0.62 0.75 0.80 0.82 0.74 0.63 0.67 0.70 0.66 0.67 0.68 0.68 0.69 0.72 0.75 0.75 0.83 1.17 1.40 1.11 0.64 0.89 1.10 0.91 1.10 0.88 0.65 0.60 0.60 0.64 0.71 0.79 0.86 0.93 1.03 1.15
0.63 0.58 0.61 0.77 0.79 0.77 0.73 0.72 0.78 0.76 0.65 0.69 0.73 0.71 0.67 0.64 0.64 0.68 0.71 0.78 0.92 1.00 0.78 1.05 1.47 1.18 1.30 1.12 0.76 0.65 0.61 0.63 0.72 0.84 0.90 1.03 1.10 1.18
0.64 0.68 0.70 0.74 0.74 0.70 0.71 0.76 0.73 0.66 0.66 0.70 0.70 0.67 0.64 0.65 0.68 0.74 0.78 0.79 0.79 0.76 0.76 0.83 1.10 1.18 1.41 1.40 0.97 0.69 0.70 0.68 0.69 0.84 0.95 1.02 1.06 1.12
0.71 0.70 0.68 0.66 0.69 0.69 0.68 0.67 0.66 0.67 0.72 0.74 0.72 0.69 0.70 0.74 0.79 0.81 0.85 0.85 0.90 0.83 0.75 0.73 0.82 1.12 1.32 1.08 1.07 0.92 0.77 0.87 0.80 0.89 0.99 1.03 1.07 1.12
0.76 0.71 0.66 0.64 0.64 0.64 0.62 0.61 0.63 0.68 0.74 0.73 0.78 0.82 0.82 0.81 0.80 0.80 0.89 0.94 0.98 0.82 0.73 0.72 0.77 0.87 0.99 1.04 1.08 0.90 0.80 0.85 0.94 1.07 1.23 1.27 1.17 1.20
0.84 0.72 0.63 0.60 0.60 0.59 0.60 0.62 0.64 0.67 0.72 0.80 0.85 0.89 0.92 0.92 0.88 0.82 0.86 0.96 0.97 0.81 0.74 0.72 0.81 0.99 0.98 0.90 0.88 0.93 0.93 0.99 1.05 1.12 1.30 1.50 1.34 1.17
0.81 0.66 0.56 0.53 0.54 0.58 0.62 0.66 0.67 0.66 0.74 0.87 0.94 0.98 1.02 1.00 0.97 0.93 0.88 0.90 0.89 0.80 0.76 0.78 0.94 1.30 1.34 0.91 0.67 0.80 1.12 1.20 1.15 1.18 1.27 1.48 1.63 1.39
0.68 0.62 0.59 0.58 0.60 0.64 0.67 0.70 0.73 0.75 0.81 0.86 0.92 0.99 1.09 1.13 1.07 0.97 0.93 0.94 0.95 0.89 0.80 0.75 0.84 1.23 1.67 1.42 1.08 0.84 0.94 1.27 1.51 1.55 1.34 1.20 1.26 1.25
0.60 0.60 0.63 0.67 0.71 0.73 0.75 0.77 0.81 0.85 0.84 0.89 0.92 0.97 1.07 1.19 1.10 0.96 0.97 0.97 1.03 1.01 0.91 0.72 0.70 0.91 1.29 1.52 1.30 0.87 0.88 1.00 1.31 1.75 1.70 1.50 1.28 1.14
0.60 0.66 0.70 0.75 0.81 0.85 0.87 0.88 0.89 0.86 0.87 0.92 0.93 0.95 1.01 1.13 1.14 1.04 1.03 1.06 1.01 0.97 0.92 0.79 0.76 0.88 1.11 1.36 1.14 0.82 0.81 0.80 0.82 0.91 1.27 1.80 2.35 2.44
0.67 0.72 0.75 0.80 0.85 0.90 0.92 0.92 0.90 0.85 0.84 0.94 0.98 0.98 1.02 1.07 1.03 1.08 1.09 1.10 1.11 1.04 0.98 0.91 0.81 0.80 0.86 0.94 1.01 0.89 0.79 0.75 0.71 0.76 0.97 1.11 1.35 1.64